Time,TemperatureF,DewpointF,PressureIn,WindDirection,WindDirectionDegrees,WindSpeedMPH,WindSpeedGustMPH,Humidity,HourlyPrecipIn,Conditions,Clouds,dailyrainin,SolarRadiationWatts/m^2,SoftwareType,DateUTC
2013-01-29 00:01:00,25.0,10.0,-100.00,SSE,152,8.0,24.0,52,0.00,,,0.00,0.000000,,2013-01-29 07:01:00,
2013-01-29 00:32:00,26.0,8.0,-100.00,SSW,213,6.0,12.0,45,0.00,,,0.00,0.000000,,2013-01-29 07:32:00,
2013-01-29 00:42:00,26.0,8.0,-100.00,SSW,213,6.0,12.0,45,0.00,,,0.00,0.000000,,2013-01-29 07:42:00,
2013-01-29 00:52:00,26.0,8.0,-100.00,SSW,213,6.0,12.0,45,0.00,,,0.00,0.000000,,2013-01-29 07:52:00,
2013-01-29 01:01:00,26.0,8.0,-100.00,SSW,213,6.0,12.0,45,0.00,,,0.00,0.000000,,2013-01-29 08:01:00,
2013-01-29 01:32:00,26.0,7.0,-100.00,WNW,288,2.0,9.0,44,0.00,,,0.00,0.000000,,2013-01-29 08:32:00,
2013-01-29 01:42:00,26.0,7.0,-100.00,WNW,288,2.0,9.0,44,0.00,,,0.00,0.000000,,2013-01-29 08:42:00,
2013-01-29 01:52:00,26.0,7.0,-100.00,WNW,288,2.0,9.0,44,0.00,,,0.00,0.000000,,2013-01-29 08:52:00,
2013-01-29 02:01:00,26.0,7.0,-100.00,WNW,288,2.0,9.0,44,0.00,,,0.00,0.000000,,2013-01-29 09:01:00,
2013-01-29 02:32:00,25.0,9.0,-100.00,West,280,0.0,6.0,50,0.00,,,0.00,0.000000,,2013-01-29 09:32:00,
2013-01-29 02:42:00,25.0,9.0,-100.00,West,280,0.0,6.0,50,0.00,,,0.00,0.000000,,2013-01-29 09:42:00,
2013-01-29 02:52:00,25.0,9.0,-100.00,West,280,0.0,6.0,50,0.00,,,0.00,0.000000,,2013-01-29 09:52:00,
2013-01-29 03:01:00,25.0,9.0,-100.00,West,280,0.0,6.0,50,0.00,,,0.00,0.000000,,2013-01-29 10:01:00,
2013-01-29 03:21:00,24.0,9.0,-100.00,WSW,247,2.0,5.0,53,0.00,,,0.00,0.000000,,2013-01-29 10:21:00,
2013-01-29 03:32:00,24.0,9.0,-100.00,WSW,247,2.0,5.0,53,0.00,,,0.00,0.000000,,2013-01-29 10:32:00,
2013-01-29 03:42:00,24.0,9.0,-100.00,WSW,247,2.0,5.0,53,0.00,,,0.00,0.000000,,2013-01-29 10:42:00,
2013-01-29 03:52:00,24.0,9.0,-100.00,WSW,247,2.0,5.0,53,0.00,,,0.00,0.000000,,2013-01-29 10:52:00,
2013-01-29 04:01:00,24.0,9.0,-100.00,WSW,247,2.0,5.0,53,0.00,,,0.00,0.000000,,2013-01-29 11:01:00,
2013-01-29 04:32:00,23.0,16.0,-100.00,NNE,28,0.0,12.0,73,0.00,,,0.00,0.000000,,2013-01-29 11:32:00,
2013-01-29 04:42:00,23.0,16.0,-100.00,NNE,28,0.0,12.0,73,0.00,,,0.00,0.000000,,2013-01-29 11:42:00,
2013-01-29 04:52:00,23.0,16.0,-100.00,NNE,28,0.0,12.0,73,0.00,,,0.00,0.000000,,2013-01-29 11:52:00,
2013-01-29 05:02:00,23.0,16.0,-100.00,NNE,28,0.0,12.0,73,0.00,,,0.00,0.000000,,2013-01-29 12:02:00,
2013-01-29 05:33:00,23.0,16.0,-100.00,SW,232,4.0,6.0,74,0.00,,,0.00,0.000000,,2013-01-29 12:33:00,
2013-01-29 05:43:00,23.0,16.0,-100.00,SW,232,4.0,6.0,74,0.00,,,0.00,0.000000,,2013-01-29 12:43:00,
2013-01-29 05:52:00,23.0,16.0,-100.00,SW,232,4.0,6.0,74,0.00,,,0.00,0.000000,,2013-01-29 12:52:00,
2013-01-29 06:01:00,23.0,16.0,-100.00,SW,232,4.0,6.0,74,0.00,,,0.00,0.000000,,2013-01-29 13:01:00,
2013-01-29 06:32:00,22.0,15.0,-100.00,NW,325,0.0,5.0,74,0.00,,,0.00,0.000000,,2013-01-29 13:32:00,
2013-01-29 06:43:00,22.0,15.0,-100.00,NW,325,0.0,5.0,74,0.00,,,0.00,0.000000,,2013-01-29 13:43:00,
2013-01-29 06:52:00,22.0,15.0,-100.00,NW,325,0.0,5.0,74,0.00,,,0.00,0.000000,,2013-01-29 13:52:00,
2013-01-29 07:01:00,22.0,15.0,-100.00,NW,325,0.0,5.0,74,0.00,,,0.00,0.000000,,2013-01-29 14:01:00,
2013-01-29 07:22:00,23.0,13.0,-100.00,North,350,8.0,14.0,66,0.00,,,0.00,0.000000,,2013-01-29 14:22:00,
2013-01-29 07:33:00,23.0,13.0,-100.00,North,350,8.0,14.0,66,0.00,,,0.00,0.000000,,2013-01-29 14:33:00,
2013-01-29 07:43:00,23.0,13.0,-100.00,North,350,8.0,14.0,66,0.00,,,0.00,0.000000,,2013-01-29 14:43:00,
2013-01-29 07:52:00,23.0,13.0,-100.00,North,350,8.0,14.0,66,0.00,,,0.00,0.000000,,2013-01-29 14:52:00,
2013-01-29 08:02:00,23.0,13.0,-100.00,North,350,8.0,14.0,66,0.00,,,0.00,0.000000,,2013-01-29 15:02:00,
2013-01-29 08:33:00,21.0,13.0,-100.00,NNE,14,6.0,18.0,70,0.00,,,0.00,0.000000,,2013-01-29 15:33:00,
2013-01-29 08:43:00,21.0,13.0,-100.00,NNE,14,6.0,18.0,70,0.00,,,0.00,0.000000,,2013-01-29 15:43:00,
2013-01-29 08:53:00,21.0,13.0,-100.00,NNE,14,6.0,18.0,70,0.00,,,0.00,0.000000,,2013-01-29 15:53:00,
2013-01-29 09:02:00,21.0,13.0,-100.00,NNE,14,6.0,18.0,70,0.00,,,0.00,0.000000,,2013-01-29 16:02:00,
2013-01-29 09:33:00,22.0,8.0,-100.00,North,2,10.0,16.0,55,0.00,,,0.00,65.000000,,2013-01-29 16:33:00,
2013-01-29 09:43:00,22.0,8.0,-100.00,North,2,10.0,16.0,55,0.00,,,0.00,65.000000,,2013-01-29 16:43:00,
2013-01-29 09:53:00,22.0,8.0,-100.00,North,2,10.0,16.0,55,0.00,,,0.00,65.000000,,2013-01-29 16:53:00,
2013-01-29 10:02:00,22.0,8.0,-100.00,North,2,10.0,16.0,55,0.00,,,0.00,65.000000,,2013-01-29 17:02:00,
2013-01-29 10:22:00,20.0,7.0,-100.00,North,6,19.0,26.0,56,0.00,,,0.00,176.000000,,2013-01-29 17:22:00,
2013-01-29 10:33:00,20.0,7.0,-100.00,North,6,19.0,26.0,56,0.00,,,0.00,176.000000,,2013-01-29 17:33:00,
2013-01-29 10:42:00,20.0,7.0,-100.00,North,6,19.0,26.0,56,0.00,,,0.00,176.000000,,2013-01-29 17:42:00,
2013-01-29 10:52:00,20.0,7.0,-100.00,North,6,19.0,26.0,56,0.00,,,0.00,176.000000,,2013-01-29 17:52:00,
2013-01-29 11:02:00,20.0,7.0,-100.00,North,6,19.0,26.0,56,0.00,,,0.00,176.000000,,2013-01-29 18:02:00,
2013-01-29 11:22:00,19.0,5.0,-100.00,NNE,18,23.0,36.0,54,0.00,,,0.00,328.000000,,2013-01-29 18:22:00,
2013-01-29 11:33:00,19.0,5.0,-100.00,NNE,18,23.0,36.0,54,0.00,,,0.00,328.000000,,2013-01-29 18:33:00,
2013-01-29 11:42:00,19.0,5.0,-100.00,NNE,18,23.0,36.0,54,0.00,,,0.00,328.000000,,2013-01-29 18:42:00,
2013-01-29 11:52:00,19.0,5.0,-100.00,NNE,18,23.0,36.0,54,0.00,,,0.00,328.000000,,2013-01-29 18:52:00,
2013-01-29 12:01:00,19.0,5.0,-100.00,NNE,18,23.0,36.0,54,0.00,,,0.00,328.000000,,2013-01-29 19:01:00,
2013-01-29 12:33:00,18.0,1.0,-100.00,NNE,18,22.0,37.0,47,0.00,,,0.00,487.000000,,2013-01-29 19:33:00,
2013-01-29 12:42:00,18.0,1.0,-100.00,NNE,18,22.0,37.0,47,0.00,,,0.00,487.000000,,2013-01-29 19:42:00,
2013-01-29 12:52:00,18.0,1.0,-100.00,NNE,18,22.0,37.0,47,0.00,,,0.00,487.000000,,2013-01-29 19:52:00,
2013-01-29 13:01:00,18.0,1.0,-100.00,NNE,18,22.0,37.0,47,0.00,,,0.00,487.000000,,2013-01-29 20:01:00,
2013-01-29 13:33:00,14.0,-1.0,-100.00,NNE,17,21.0,36.0,51,0.00,,,0.00,476.000000,,2013-01-29 20:33:00,
2013-01-29 13:42:00,14.0,-1.0,-100.00,NNE,17,21.0,36.0,51,0.00,,,0.00,476.000000,,2013-01-29 20:42:00,
2013-01-29 13:53:00,14.0,-1.0,-100.00,NNE,17,21.0,36.0,51,0.00,,,0.00,476.000000,,2013-01-29 20:53:00,
2013-01-29 14:01:00,14.0,-1.0,-100.00,NNE,17,21.0,36.0,51,0.00,,,0.00,476.000000,,2013-01-29 21:01:00,
2013-01-29 14:34:00,15.0,-2.0,-100.00,NNE,23,14.0,31.0,47,0.00,,,0.00,324.000000,,2013-01-29 21:34:00,
2013-01-29 14:42:00,15.0,-2.0,-100.00,NNE,23,14.0,31.0,47,0.00,,,0.00,324.000000,,2013-01-29 21:42:00,
2013-01-29 14:52:00,15.0,-2.0,-100.00,NNE,23,14.0,31.0,47,0.00,,,0.00,324.000000,,2013-01-29 21:52:00,
2013-01-29 15:01:00,15.0,-2.0,-100.00,NNE,23,14.0,31.0,47,0.00,,,0.00,324.000000,,2013-01-29 22:01:00,
2013-01-29 15:33:00,16.0,-2.0,-100.00,North,6,7.0,27.0,44,0.00,,,0.00,342.000000,,2013-01-29 22:33:00,
2013-01-29 15:42:00,16.0,-2.0,-100.00,North,6,7.0,27.0,44,0.00,,,0.00,342.000000,,2013-01-29 22:42:00,
2013-01-29 15:53:00,16.0,-2.0,-100.00,North,6,7.0,27.0,44,0.00,,,0.00,342.000000,,2013-01-29 22:53:00,
2013-01-29 16:01:00,16.0,-2.0,-100.00,North,6,7.0,27.0,44,0.00,,,0.00,342.000000,,2013-01-29 23:01:00,
2013-01-29 16:33:00,14.0,-4.0,-100.00,North,1,6.0,14.0,44,0.00,,,0.00,147.000000,,2013-01-29 23:33:00,
2013-01-29 16:42:00,14.0,-4.0,-100.00,North,1,6.0,14.0,44,0.00,,,0.00,147.000000,,2013-01-29 23:42:00,
2013-01-29 16:53:00,14.0,-4.0,-100.00,North,1,6.0,14.0,44,0.00,,,0.00,147.000000,,2013-01-29 23:53:00,
2013-01-29 17:02:00,14.0,-4.0,-100.00,North,1,6.0,14.0,44,0.00,,,0.00,147.000000,,2013-01-30 00:02:00,
2013-01-29 17:32:00,12.0,-4.0,-100.00,SE,143,6.0,11.0,48,0.00,,,0.00,97.000000,,2013-01-30 00:32:00,
2013-01-29 17:43:00,12.0,-4.0,-100.00,SE,143,6.0,11.0,48,0.00,,,0.00,97.000000,,2013-01-30 00:43:00,
2013-01-29 17:52:00,12.0,-4.0,-100.00,SE,143,6.0,11.0,48,0.00,,,0.00,97.000000,,2013-01-30 00:52:00,
2013-01-29 18:01:00,12.0,-4.0,-100.00,SE,143,6.0,11.0,48,0.00,,,0.00,97.000000,,2013-01-30 01:01:00,
2013-01-29 18:22:00,9.0,-5.0,-100.00,SSE,154,0.0,9.0,51,0.00,,,0.00,16.000000,,2013-01-30 01:22:00,
2013-01-29 18:32:00,9.0,-5.0,-100.00,SSE,154,0.0,9.0,51,0.00,,,0.00,16.000000,,2013-01-30 01:32:00,
2013-01-29 18:42:00,9.0,-5.0,-100.00,SSE,154,0.0,9.0,51,0.00,,,0.00,16.000000,,2013-01-30 01:42:00,
2013-01-29 18:52:00,9.0,-5.0,-100.00,SSE,154,0.0,9.0,51,0.00,,,0.00,16.000000,,2013-01-30 01:52:00,
2013-01-29 19:01:00,9.0,-5.0,-100.00,SSE,154,0.0,9.0,51,0.00,,,0.00,16.000000,,2013-01-30 02:01:00,
2013-01-29 19:22:00,10.0,-4.0,-100.00,SW,215,1.0,5.0,51,0.00,,,0.00,0.000000,,2013-01-30 02:22:00,
2013-01-29 19:33:00,10.0,-4.0,-100.00,SW,215,1.0,5.0,51,0.00,,,0.00,0.000000,,2013-01-30 02:33:00,
2013-01-29 19:42:00,10.0,-4.0,-100.00,SW,215,1.0,5.0,51,0.00,,,0.00,0.000000,,2013-01-30 02:42:00,
2013-01-29 19:53:00,10.0,-4.0,-100.00,SW,215,1.0,5.0,51,0.00,,,0.00,0.000000,,2013-01-30 02:53:00,
2013-01-29 20:02:00,10.0,-4.0,-100.00,SW,215,1.0,5.0,51,0.00,,,0.00,0.000000,,2013-01-30 03:02:00,
2013-01-29 20:22:00,10.0,-4.0,-100.00,SE,126,4.0,7.0,51,0.00,,,-99.99,0.000000,,2013-01-30 03:22:00,
2013-01-29 20:32:00,10.0,-4.0,-100.00,SE,126,4.0,7.0,51,0.00,,,-99.99,0.000000,,2013-01-30 03:32:00,
2013-01-29 20:42:00,10.0,-4.0,-100.00,SE,126,4.0,7.0,51,0.00,,,-99.99,0.000000,,2013-01-30 03:42:00,
2013-01-29 20:52:00,10.0,-4.0,-100.00,SE,126,4.0,7.0,51,0.00,,,-99.99,0.000000,,2013-01-30 03:52:00,
2013-01-29 21:01:00,10.0,-4.0,-100.00,SE,126,4.0,7.0,51,0.00,,,-99.99,0.000000,,2013-01-30 04:01:00,
2013-01-29 21:03:00,11.0,-3.0,-100.00,ESE,119,6.0,9.0,53,0.00,,,0.00,0.000000,,2013-01-30 04:03:00,
2013-01-29 21:32:00,11.0,-3.0,-100.00,ESE,119,6.0,9.0,53,0.00,,,0.00,0.000000,,2013-01-30 04:32:00,
2013-01-29 21:42:00,11.0,-3.0,-100.00,ESE,119,6.0,9.0,53,0.00,,,0.00,0.000000,,2013-01-30 04:42:00,
2013-01-29 21:52:00,11.0,-3.0,-100.00,ESE,119,6.0,9.0,53,0.00,,,0.00,0.000000,,2013-01-30 04:52:00,
2013-01-29 22:22:00,11.0,-1.0,-100.00,ENE,74,0.0,10.0,57,0.00,,,0.00,0.000000,,2013-01-30 05:22:00,
2013-01-29 22:32:00,11.0,-1.0,-100.00,ENE,74,0.0,10.0,57,0.00,,,0.00,0.000000,,2013-01-30 05:32:00,
2013-01-29 22:43:00,11.0,-1.0,-100.00,ENE,74,0.0,10.0,57,0.00,,,0.00,0.000000,,2013-01-30 05:43:00,
2013-01-29 22:52:00,11.0,-1.0,-100.00,ENE,74,0.0,10.0,57,0.00,,,0.00,0.000000,,2013-01-30 05:52:00,
2013-01-29 23:02:00,11.0,-1.0,-100.00,ENE,74,0.0,10.0,57,0.00,,,0.00,0.000000,,2013-01-30 06:02:00,
2013-01-29 23:22:00,11.0,1.0,-100.00,NW,316,2.0,7.0,63,0.00,,,0.00,0.000000,,2013-01-30 06:22:00,
2013-01-29 23:32:00,11.0,1.0,-100.00,NW,316,2.0,7.0,63,0.00,,,0.00,0.000000,,2013-01-30 06:32:00,
2013-01-29 23:42:00,11.0,1.0,-100.00,NW,316,2.0,7.0,63,0.00,,,0.00,0.000000,,2013-01-30 06:42:00,
2013-01-29 23:52:00,11.0,1.0,-100.00,NW,316,2.0,7.0,63,0.00,,,0.00,0.000000,,2013-01-30 06:52:00,